GW5372 Weather Reports


time (UTC)temp
C
wind
direction
speed
KPH
gust
KPH
rain 1hr
cm
rain 24hr
cm
rain mn
cm
humidity
%
barometer
mb
20260505224223 26 141 0.0 1.6 0.00 0.00 0.00 30 1007.6
20260505223721 26 111 1.6 3.2 0.00 0.00 0.00 29 1007.5
20260505223217 27 170 3.2 4.8 0.00 0.00 0.00 29 1007.5
20260505222713 27 127 3.2 3.2 0.00 0.00 0.00 29 1007.7
20260505222209 27 276 0.0 1.6 0.00 0.00 0.00 29 1007.6
20260505221707 27 201 1.6 1.6 0.00 0.00 0.00 29 1007.3
20260505221203 27 108 0.0 1.6 0.00 0.00 0.00 29 1007.4
20260505220700 27 141 1.6 1.6 0.00 0.00 0.00 29 1007.7
20260505220158 27 334 1.6 1.6 0.00 0.00 0.00 30 1007.4
20260505215655 27 129 1.6 3.2 0.00 0.00 0.00 29 1007.2
20260505215153 27 197 1.6 1.6 0.00 0.00 0.00 29 1007.3
20260505214651 27 98 1.6 1.6 0.00 0.00 0.00 29 1007.3
20260505214148 27 136 1.6 1.6 0.00 0.00 0.00 30 1007.2
20260505213645 27 102 0.0 1.6 0.00 0.00 0.00 30 1007.1
20260505213142 27 90 1.6 3.2 0.00 0.00 0.00 30 1007.2
20260505212638 28 168 1.6 1.6 0.00 0.00 0.00 30 1006.8
20260505212136 28 201 1.6 3.2 0.00 0.00 0.00 29 1006.9
20260505211632 28 114 0.0 1.6 0.00 0.00 0.00 29 1006.8
20260505211130 28 132 3.2 3.2 0.00 0.00 0.00 28 1006.7
20260505210626 27 114 3.2 4.8 0.00 0.00 0.00 29 1006.7
20260505210123 27 186 1.6 1.6 0.00 0.00 0.00 30 1006.9
20260505205620 27 140 1.6 1.6 0.00 0.00 0.00 29 1006.9
20260505205119 27 220 3.2 4.8 0.00 0.00 0.00 29 1006.8
20260505204615 27 131 0.0 0.0 0.00 0.00 0.00 29 1007.0
20260505204113 28 116 3.2 3.2 0.00 0.00 0.00 29 1007.1
20260505203609 28 122 1.6 1.6 0.00 0.00 0.00 29 1007.0
20260505203107 28 107 1.6 3.2 0.00 0.00 0.00 28 1007.2
20260505202602 28 120 3.2 4.8 0.00 0.00 0.00 29 1007.2
20260505202058 28 153 3.2 3.2 0.00 0.00 0.00 29 1007.4
20260505201555 28 174 4.8 6.4 0.00 0.00 0.00 29 1007.2
20260505201053 27 101 3.2 4.8 0.00 0.00 0.00 29 1007.1
20260505200550 28 126 1.6 3.2 0.00 0.00 0.00 30 1007.2
20260505200047 28 99 0.0 1.6 0.00 0.00 0.00 30 1007.1
20260505195543 28 174 6.4 11.3 0.00 0.00 0.00 32 1007.2
20260505195041 28 130 1.6 1.6 0.00 0.00 0.00 31 1007.2
20260505194538 28 138 1.6 3.2 0.00 0.00 0.00 30 1007.2
20260505194033 28 113 3.2 3.2 0.00 0.00 0.00 30 1007.5
20260505193531 28 192 3.2 3.2 0.00 0.00 0.00 31 1007.4
20260505193028 28 113 1.6 1.6 0.00 0.00 0.00 31 1007.4
20260505192526 28 129 3.2 3.2 0.00 0.00 0.00 30 1007.5
20260505192024 28 130 3.2 4.8 0.00 0.00 0.00 30 1007.6
20260505191522 28 101 1.6 1.6 0.00 0.00 0.00 30 1007.6
20260505191020 28 143 4.8 4.8 0.00 0.00 0.00 30 1007.7
20260505190514 28 166 3.2 4.8 0.00 0.00 0.00 30 1007.8
20260505190010 28 153 3.2 3.2 0.00 0.00 0.00 32 1008.0
20260505185507 28 103 0.0 1.6 0.00 0.00 0.00 31 1007.7
20260505185003 27 97 1.6 3.2 0.00 0.00 0.00 32 1007.9
20260505184500 27 122 3.2 3.2 0.00 0.00 0.00 32 1007.9
20260505183957 28 114 1.6 1.6 0.00 0.00 0.00 32 1008.3
20260505183454 28 94 1.6 1.6 0.00 0.00 0.00 33 1008.3
20260505182950 28 179 3.2 3.2 0.00 0.00 0.00 34 1008.4
20260505182447 28 145 1.6 3.2 0.00 0.00 0.00 35 1008.3
20260505181943 28 92 3.2 3.2 0.00 0.00 0.00 34 1008.3
20260505181441 28 96 0.0 1.6 0.00 0.00 0.00 34 1008.2
20260505180938 28 172 1.6 3.2 0.00 0.00 0.00 34 1008.4
20260505180434 28 111 1.6 3.2 0.00 0.00 0.00 35 1008.4
20260505175931 28 105 1.6 3.2 0.00 0.00 0.00 35 1008.4
20260505175427 27 183 3.2 6.4 0.00 0.00 0.00 34 1008.3
20260505174924 28 160 3.2 4.8 0.00 0.00 0.00 35 1008.5
20260505174422 27 141 3.2 3.2 0.00 0.00 0.00 36 1008.7
20260505173917 27 134 3.2 4.8 0.00 0.00 0.00 36 1008.8
20260505173414 27 138 1.6 1.6 0.00 0.00 0.00 37 1008.7
20260505172911 27 116 1.6 3.2 0.00 0.00 0.00 37 1008.9
20260505172409 27 109 1.6 3.2 0.00 0.00 0.00 38 1008.8
20260505171908 27 104 0.0 0.0 0.00 0.00 0.00 41 1008.8
20260505171405 26 164 1.6 1.6 0.00 0.00 0.00 39 1009.0
20260505170902 26 153 1.6 1.6 0.00 0.00 0.00 39 1009.0
20260505170359 26 108 0.0 0.0 0.00 0.00 0.00 40 1009.2
20260505165854 26 93 0.0 0.0 0.00 0.00 0.00 40 1009.3
20260505165350 26 120 3.2 3.2 0.00 0.00 0.00 40 1009.2
20260505164846 26 109 1.6 3.2 0.00 0.00 0.00 41 1009.3
20260505164342 26 125 0.0 1.6 0.00 0.00 0.00 40 1009.4
20260505163841 26 118 1.6 1.6 0.00 0.00 0.00 42 1009.3
20260505163339 26 104 0.0 1.6 0.00 0.00 0.00 41 1009.5
20260505162838 26 115 1.6 1.6 0.00 0.00 0.00 43 1009.6
20260505162333 25 107 0.0 0.0 0.00 0.00 0.00 43 1009.5
20260505161831 25 173 4.8 9.7 0.00 0.00 0.00 43 1009.7
20260505161328 25 106 0.0 1.6 0.00 0.00 0.00 43 1009.7
20260505160825 25 114 1.6 1.6 0.00 0.00 0.00 44 1009.9
20260505160323 25 140 1.6 3.2 0.00 0.00 0.00 45 1009.8
20260505153301 23 147 3.2 3.2 0.00 0.00 0.00 46 1010.2
20260505152759 23 110 0.0 0.0 0.00 0.00 0.00 47 1010.2
20260505152256 23 113 0.0 0.0 0.00 0.00 0.00 47 1010.5
20260505151755 23 111 1.6 1.6 0.00 0.00 0.00 47 1010.3
20260505151253 23 122 0.0 0.0 0.00 0.00 0.00 47 1010.2
20260505150750 23 117 1.6 1.6 0.00 0.00 0.00 47 1010.3
20260505150247 23 139 1.6 3.2 0.00 0.00 0.00 47 1010.1
20260505140211 21 99 0.0 0.0 0.00 0.00 0.00 54 1010.6
20260505130135 17 111 0.0 0.0 0.00 0.00 0.00 65 1010.2
20260505124624 17 96 0.0 0.0 0.00 0.00 0.00 67 1010.0
20260505124121 16 96 0.0 0.0 0.00 0.00 0.00 68 1010.1
20260505123617 16 96 0.0 0.0 0.00 0.00 0.00 69 1010.0
20260505123114 16 96 0.0 0.0 0.00 0.00 0.00 70 1010.1
20260505122611 16 96 0.0 0.0 0.00 0.00 0.00 71 1010.1
20260505122108 16 96 0.0 0.0 0.00 0.00 0.00 73 1010.1
20260505121604 15 96 0.0 0.0 0.00 0.00 0.00 75 1010.2
20260505121101 15 96 0.0 0.0 0.00 0.00 0.00 75 1010.3
20260505120557 15 96 0.0 0.0 0.00 0.00 0.00 75 1010.2
20260505120053 15 96 0.0 0.0 0.00 0.00 0.00 76 1010.4
20260505115547 14 97 0.0 0.0 0.00 0.00 0.00 77 1010.1
20260505115045 14 97 0.0 0.0 0.00 0.00 0.00 78 1010.2
20260505114542 14 97 0.0 0.0 0.00 0.00 0.00 77 1010.1
20260505114038 14 97 0.0 0.0 0.00 0.00 0.00 77 1010.0
20260505113535 13 97 0.0 0.0 0.00 0.00 0.00 78 1010.0
20260505113032 13 97 0.0 0.0 0.00 0.00 0.00 79 1009.9
20260505112529 12 97 0.0 0.0 0.00 0.00 0.00 82 1009.8
20260505112027 12 97 0.0 0.0 0.00 0.00 0.00 83 1009.7
20260505111526 12 97 0.0 0.0 0.00 0.00 0.00 83 1009.7
20260505111022 13 97 0.0 0.0 0.00 0.00 0.00 82 1009.6
20260505110519 13 97 0.0 0.0 0.00 0.00 0.00 80 1009.9
20260505101951 11 96 0.0 0.0 0.00 0.00 0.00 85 1009.7
20260505101449 11 96 0.0 0.0 0.00 0.00 0.00 85 1009.7
20260505100945 10 96 0.0 0.0 0.00 0.00 0.00 85 1009.6
20260505100443 11 96 0.0 0.0 0.00 0.00 0.00 85 1009.6
20260505095939 11 96 0.0 0.0 0.00 0.00 0.00 84 1009.7
20260505095436 11 96 0.0 0.0 0.00 0.00 0.00 84 1009.7
20260505094932 11 96 0.0 0.0 0.00 0.00 0.00 84 1009.6
20260505094429 11 96 0.0 0.0 0.00 0.00 0.00 83 1009.5
20260505093925 11 96 0.0 0.0 0.00 0.00 0.00 83 1009.4
20260505093422 11 96 0.0 0.0 0.00 0.00 0.00 83 1009.3
20260505092919 11 96 0.0 0.0 0.00 0.00 0.00 83 1009.2
20260505092417 11 96 0.0 0.0 0.00 0.00 0.00 82 1009.2
20260505091914 11 96 0.0 0.0 0.00 0.00 0.00 83 1009.0
20260505091412 11 96 0.0 0.0 0.00 0.00 0.00 83 1009.0
20260505090909 11 96 0.0 0.0 0.00 0.00 0.00 84 1009.0
20260505090408 11 96 0.0 0.0 0.00 0.00 0.00 84 1009.3
20260505085904 10 96 0.0 0.0 0.00 0.00 0.00 84 1008.9
20260505085402 11 96 0.0 0.0 0.00 0.00 0.00 84 1008.9
20260505084900 11 96 0.0 0.0 0.00 0.00 0.00 83 1008.9
20260505084358 11 96 0.0 0.0 0.00 0.00 0.00 83 1009.3
20260505083856 11 96 0.0 0.0 0.00 0.00 0.00 82 1009.2
20260505083353 11 96 0.0 0.0 0.00 0.00 0.00 82 1009.0
20260505082849 11 94 0.0 0.0 0.00 0.00 0.00 82 1009.0
20260505082345 11 96 0.0 0.0 0.00 0.00 0.00 82 1009.0
20260505081842 11 96 0.0 0.0 0.00 0.00 0.00 82 1009.2
20260505081339 11 93 0.0 0.0 0.00 0.00 0.00 82 1009.2
20260505080836 11 91 0.0 0.0 0.00 0.00 0.00 81 1009.2
20260505080331 11 91 0.0 0.0 0.00 0.00 0.00 81 1009.0
20260505075827 11 89 0.0 0.0 0.00 0.00 0.00 81 1009.2
20260505075324 11 94 0.0 0.0 0.00 0.00 0.00 81 1009.3
20260505074822 11 94 0.0 0.0 0.00 0.00 0.00 80 1009.2
20260505074319 11 94 0.0 0.0 0.00 0.00 0.00 80 1009.2
20260505073816 11 94 0.0 0.0 0.00 0.00 0.00 80 1009.0
20260505073314 11 94 0.0 0.0 0.00 0.00 0.00 79 1009.3
20260505072811 11 94 0.0 0.0 0.00 0.00 0.00 79 1009.2
20260505072307 11 93 0.0 0.0 0.00 0.00 0.00 78 1009.3
20260505071803 11 93 0.0 0.0 0.00 0.00 0.00 78 1009.2
20260505071259 11 90 0.0 0.0 0.00 0.00 0.00 77 1009.4
20260505070757 11 99 0.0 0.0 0.00 0.00 0.00 77 1009.2
20260505070254 12 97 0.0 0.0 0.00 0.00 0.00 76 1009.3
20260505065749 12 101 0.0 0.0 0.00 0.00 0.00 75 1009.4
20260505065246 12 101 0.0 0.0 0.00 0.00 0.00 75 1009.3
20260505064743 12 105 0.0 0.0 0.00 0.00 0.00 74 1009.3
20260505064240 12 105 0.0 0.0 0.00 0.00 0.00 74 1009.2
20260505063738 12 105 0.0 0.0 0.00 0.00 0.00 74 1009.3
20260505063234 12 110 0.0 0.0 0.00 0.00 0.00 74 1009.5
20260505062730 12 110 0.0 0.0 0.00 0.00 0.00 74 1009.5
20260505062228 12 101 0.0 0.0 0.00 0.00 0.00 74 1009.4
20260505061725 12 101 0.0 0.0 0.00 0.00 0.00 74 1009.5
20260505061223 12 101 0.0 0.0 0.00 0.00 0.00 73 1009.5
20260505060720 12 101 0.0 0.0 0.00 0.00 0.00 72 1009.4
20260505060217 12 101 0.0 0.0 0.00 0.00 0.00 71 1009.5
20260505055712 12 101 0.0 0.0 0.00 0.00 0.00 71 1009.5
20260505055209 12 101 0.0 0.0 0.00 0.00 0.00 70 1009.4
20260505054706 12 101 0.0 0.0 0.00 0.00 0.00 70 1009.5
20260505054204 12 101 0.0 0.0 0.00 0.00 0.00 69 1009.7
20260505053702 13 101 0.0 0.0 0.00 0.00 0.00 69 1009.6
20260505053158 13 101 0.0 0.0 0.00 0.00 0.00 68 1009.6
20260505052655 13 101 0.0 0.0 0.00 0.00 0.00 68 1009.8
20260505052152 13 106 0.0 0.0 0.00 0.00 0.00 68 1009.8
20260505051649 13 106 0.0 0.0 0.00 0.00 0.00 67 1009.7
20260505051147 13 106 0.0 0.0 0.00 0.00 0.00 67 1009.8
20260505050645 13 106 0.0 0.0 0.00 0.00 0.00 66 1009.9
20260505050143 13 106 0.0 0.0 0.00 0.00 0.00 65 1010.0
20260505041613 15 111 0.0 0.0 0.00 0.00 0.00 58 1009.9
20260505041110 15 109 0.0 0.0 0.00 0.00 0.00 58 1009.8
20260505040607 15 104 0.0 0.0 0.00 0.00 0.00 58 1010.0
20260505040104 15 105 0.0 0.0 0.00 0.00 0.00 57 1010.0
20260505035600 15 105 0.0 0.0 0.00 0.00 0.00 57 1009.8
20260505035057 15 105 0.0 0.0 0.00 0.00 0.00 58 1010.0
20260505034553 15 105 0.0 0.0 0.00 0.00 0.00 57 1010.0
20260505034050 15 105 0.0 0.0 0.00 0.00 0.00 56 1009.9
20260505033547 15 105 0.0 0.0 0.00 0.00 0.00 56 1009.9
20260505033046 15 103 0.0 0.0 0.00 0.00 0.00 54 1010.1
20260505032543 15 103 0.0 0.0 0.00 0.00 0.00 53 1010.1
20260505032039 16 112 0.0 0.0 0.00 0.00 0.00 52 1010.0
20260505031537 16 124 0.0 0.0 0.00 0.00 0.00 52 1010.2
20260505031033 16 109 0.0 0.0 0.00 0.00 0.00 51 1010.3
20260505030530 16 109 0.0 0.0 0.00 0.00 0.00 50 1010.3
20260505030026 16 109 0.0 0.0 0.00 0.00 0.00 49 1010.2
20260505025522 16 107 0.0 0.0 0.00 0.00 0.00 48 1010.2
20260505025021 17 112 0.0 0.0 0.00 0.00 0.00 48 1010.3
20260505024518 17 112 0.0 0.0 0.00 0.00 0.00 47 1010.1
20260505024015 17 107 0.0 0.0 0.00 0.00 0.00 47 1010.1
20260505023512 17 104 0.0 0.0 0.00 0.00 0.00 46 1010.2
20260505023009 17 113 0.0 0.0 0.00 0.00 0.00 45 1010.2
20260505022507 17 117 0.0 0.0 0.00 0.00 0.00 45 1010.3
20260505022004 17 115 0.0 0.0 0.00 0.00 0.00 44 1010.3
20260505021500 17 118 0.0 0.0 0.00 0.00 0.00 45 1010.4
20260505020956 17 111 0.0 0.0 0.00 0.00 0.00 45 1010.3
20260505020451 17 114 0.0 0.0 0.00 0.00 0.00 45 1010.1
20260505015948 17 114 0.0 0.0 0.00 0.00 0.00 44 1010.3
20260505015446 17 114 0.0 0.0 0.00 0.00 0.00 44 1010.3
20260505014943 17 106 0.0 0.0 0.00 0.00 0.00 44 1010.1
20260505014439 17 111 0.0 0.0 0.00 0.00 0.00 45 1010.2
20260505013937 17 108 0.0 0.0 0.00 0.00 0.00 45 1010.2
20260505013434 17 106 0.0 0.0 0.00 0.00 0.00 45 1010.1
20260505012931 17 106 0.0 0.0 0.00 0.00 0.00 44 1010.2
20260505012429 17 106 0.0 0.0 0.00 0.00 0.00 45 1010.0
20260505011925 17 108 0.0 0.0 0.00 0.00 0.00 44 1009.9
20260505011422 17 106 0.0 0.0 0.00 0.00 0.00 45 1009.8
20260505010919 17 108 0.0 0.0 0.00 0.00 0.00 45 1009.8
20260505010414 17 108 0.0 0.0 0.00 0.00 0.00 44 1009.8
20260505005910 18 108 0.0 0.0 0.00 0.00 0.00 43 1009.8
20260505005408 18 110 0.0 0.0 0.00 0.00 0.00 44 1009.6
20260505004905 18 110 0.0 0.0 0.00 0.00 0.00 44 1009.6
20260505004401 18 112 0.0 1.6 0.00 0.00 0.00 43 1009.4
20260505003858 18 113 0.0 0.0 0.00 0.00 0.00 42 1009.5
20260505003355 18 110 0.0 0.0 0.00 0.00 0.00 42 1009.5
20260505002852 18 105 0.0 0.0 0.00 0.00 0.00 41 1009.2
20260505002348 19 113 0.0 0.0 0.00 0.00 0.00 40 1009.0
20260505001847 19 107 0.0 0.0 0.00 0.00 0.00 40 1009.0
20260505001344 19 110 0.0 0.0 0.00 0.00 0.00 39 1008.9
20260505000841 20 112 0.0 0.0 0.00 0.00 0.00 40 1008.8
20260505000338 20 104 0.0 1.6 0.00 0.00 0.00 38 1008.9
20260504235835 20 110 0.0 0.0 0.00 0.00 0.00 39 1008.7
20260504235332 20 111 0.0 0.0 0.00 0.00 0.00 38 1008.5
20260504234828 20 111 0.0 1.6 0.00 0.00 0.00 38 1008.5
20260504234327 20 104 0.0 0.0 0.00 0.00 0.00 38 1008.4
20260504233823 20 105 0.0 0.0 0.00 0.00 0.00 37 1008.6
20260504233318 20 106 0.0 0.0 0.00 0.00 0.00 37 1008.3
20260504232815 20 129 0.0 1.6 0.00 0.00 0.00 36 1008.3
20260504232313 20 94 1.6 1.6 0.00 0.00 0.00 37 1008.5
20260504231809 20 113 0.0 0.0 0.00 0.00 0.00 36 1008.2
20260504231306 21 97 0.0 0.0 0.00 0.00 0.00 36 1008.0
20260504230802 21 131 1.6 1.6 0.00 0.00 0.00 35 1008.3
20260504230300 21 101 1.6 1.6 0.00 0.00 0.00 35 1007.9
20260504225759 21 114 0.0 1.6 0.00 0.00 0.00 35 1008.1
20260504225254 21 110 0.0 1.6 0.00 0.00 0.00 35 1008.0
20260504224752 21 101 0.0 0.0 0.00 0.00 0.00 35 1008.0